Reflectivity
-20 12 16 16 12 12 13 -9 9 -14 -20 -20 -20 -20 -20 -20 -20 -20 -20 -20 -20 -20 -20 -20 -20 -20 -20 -20 -20 -20 -20 -20 -20 -20 -20 -20 -18 -20 17 -20 -20 -20 -20 -20 -20 -20 -20
4 15 3 11 3 15 17 15 -13 -12 -18 -20 -20 -20 -20 -20 -20 -20 -20 -20 -20 -20 -20 -20 -20 -16 -20 -6 -4 -10 -20 -20 -20 -20 -20 -20 -20 -20 8 -10 -20 -20 -20 -20 -20 -20 -20
5 17 9 12 -6 5 4 12 15 13 5 -20 -20 -20 -20 -20 -20 -20 -20 -20 -20 -20 -20 -20 -20 -20 -20 13 -18 12 -20 -20 -20 -20 -20 -20 -20 -20 -20 -5 -19 -20 8 -20 -20 -20 -20
13 16 17 15 12 8 7 12 12 16 13 -19 -20 -20 -20 -20 -20 -20 -20 -20 -20 -20 -20 -20 -20 -20 -17 -20 -11 -16 8 10 -20 -20 -20 -20 -20 -20 -20 -3 -5 -20 -20 -20 -20 -20 -20
-3 11 17 9 -12 -18 -20 -20 -8 15 15 4 -20 -20 -20 -20 -20 -20 -20 -20 -20 -20 -20 -20 -20 -20 -20 -14 11 25 13 -1 1 -12 -7 1 -13 10 -20 -20 17 -20 -20 -20 -20 -20 -20
17 6 14 -19 -18 -16 -20 -20 -20 -13 17 12 -20 -20 -20 -20 -20 -20 -20 -20 -20 -20 -20 -20 -20 -20 -20 -20 -20 -16 26 25 32 33 27 -17 14 -20 -20 -20 -17 -20 -20 -20 -20 -20 -20
-19 -20 -20 -20 -20 -20 -20 -20 -20 -20 7 11 -20 -20 -20 -20 -20 -20 -20 -20 -20 -20 -20 -20 -20 -20 -20 -20 -20 -20 -20 16 -8 28 11 5 4 28 -3 8 12 -20 -20 -20 -20 -20 -20
15 10 -20 -20 -20 -20 -20 -20 -20 -20 -5 -20 -20 -20 -20 -20 -20 -20 -20 -20 -20 -20 -20 -20 -20 -20 -20 -20 -20 -20 -19 -20 -20 -3 29 -20 -4 14 8 24 -3 -20 -20 -20 -20 -20 -20
11 9 1 -20 -20 -20 -20 -20 -20 -20 -20 0 -20 -20 -20 -20 -20 -20 -20 -20 -20 -20 -20 -20 -20 -20 -20 -20 -20 -20 -16 -20 -20 -20 -10 -20 -17 -5 -20 -20 -20 -20 -20 -20 -20 -20 -7
-9 10 -4 -20 -20 -20 -20 -20 -20 -20 -20 -20 -20 -20 -20 -20 -20 -20 -20 -20 -20 -20 -20 -20 -20 -20 -20 -20 -20 -20 -20 -20 -20 -20 -20 -20 -20 -20 -20 -20 -20 -20 -20 -11 -1 -20 -18
-20 -20 -20 -20 -20 -20 -20 -20 -20 -20 -20 -20 -20 -20 -20 -20 -20 -20 -20 -20 -20 -20 -20 -20 -20 -20 -20 -20 -20 -20 -20 -20 -20 -20 -20 -20 -20 -20 -20 -20 -20 -20 -20 -20 -14 -17 -20
-20 -20 -20 -20 -20 -20 -20 -20 -20 -20 -20 -20 -20 -20 -20 -20 -20 -20 -20 -20 -20 -20 -20 -20 -20 -20 -20 -20 -20 -20 -20 -20 -20 -20 -20 -20 -12 -20 -20 -20 -20 -20 -20 -20 -20 -14 -20
-20 -20 -20 -20 -20 -20 -20 -20 -20 -20 -20 -20 -20 -20 -20 -20 -20 -20 -20 -20 -20 -20 -20 -20 -20 -20 -20 -20 -20 -20 -20 -20 -20 -20 -20 -20 -20 -6 4 11 -20 0 17 -4 -7 -20 -20
-20 -20 -20 -20 -20 -20 -20 -20 -20 -20 -20 -20 -20 -20 -20 -20 -20 -20 -20 -20 -20 -20 -20 -20 -20 -20 -20 -20 -20 -20 -20 -20 -20 -20 -20 -20 -20 -20 -17 -11 -19 -18 -20 -20 -20 -20 -20
-20 -20 -20 -20 -20 -20 -20 -20 -20 -20 -20 -20 -20 -20 -20 -20 -20 -20 -20 -20 -20 -20 -20 -20 -20 -20 -20 -20 -20 -20 -20 -20 -20 -20 -20 -20 -20 -20 -20 -20 -20 -20 -20 -20 -20 -20 -20
-20 -20 -20 -20 -20 -20 -20 -20 -20 -20 -20 -20 -20 -20 -20 -20 -20 -20 -20 -20 -20 -20 -20 -20 -20 -20 -20 -20 -20 -20 -20 -20 -20 -20 -20 -20 -20 -20 -20 -20 -20 -20 -20 -20 -20 -20 -20
-19 -20 -20 -20 -20 -20 -20 -20 -20 -20 -20 -20 -20 -20 -20 -20 -20 -20 -20 -20 -20 -20 -20 -20 -20 -20 -20 -20 -20 -20 -20 -20 -20 -20 -20 -20 -20 -20 -20 -20 -20 -20 -20 -20 -20 -20 -20
-9 -4 -20 -20 -20 -20 -20 -20 -20 -20 -20 -20 -20 -20 -20 -20 -20 -20 -20 -20 -20 -20 -20 -20 -20 -20 -20 -20 -20 -20 -20 -20 -20 -20 -20 -20 -20 -20 -20 -20 -20 -20 -20 -20 -20 -20 -20
6 -7 -6 -20 -20 -20 -20 -20 -20 -20 -20 -20 -20 -20 -20 -20 -20 -20 -20 -20 -20 -20 -20 -20 -20 -20 -20 -20 -20 -20 -20 -20 -20 -20 -20 -20 -20 -20 -20 -20 -20 -20 -20 -20 -20 -20 -20
-20 -20 -20 -20 -20 -20 -20 -20 -20 -20 -20 -20 -20 -20 -20 -20 -20 -20 -20 -20 -20 -20 -20 -20 -20 -20 -20 -20 -20 -20 -20 -20 -20 -20 -20 -20 -20 -20 -20 -20 -20 -20 -20 -20 -20 -20 -20
-20 -20 -20 -20 -20 -20 -20 -20 -20 -20 -20 -20 -20 -20 -20 -20 -20 -20 -20 -20 -20 -20 -20 -20 -20 -20 -20 -20 -20 -20 -20 -20 -20 -20 -20 -20 -20 -20 -20 -20 -20 -20 -20 -20 -20 -20 -20
-20 -20 -20 -20 -20 -20 -20 -20 -20 -20 -20 -20 -20 -20 -20 -20 -20 -20 -20 -20 -20 -20 -20 -20 -20 -20 -20 -20 -20 -20 -20 -20 -20 -20 -20 -20 -20 -20 -20 -20 -20 -20 -20 -20 -20 -20 -20
-20 -20 -20 -20 -20 -20 -20 -20 -20 -20 -20 -20 -20 -20 -20 -20 -20 -20 -20 -20 -20 -20 -20 -20 -20 -20 -20 -20 -20 -20 -20 -20 -20 -20 -20 -20 -20 -20 -20 -20 -20 -20 -20 -20 -20 -20 -20
-20 -20 -20 -20 -20 -20 -20 -20 -20 -20 -20 -20 -20 -20 -20 -20 -20 -20 -20 -20 -20 -20 -20 -20 -20 -20 -20 -20 -20 -20 -20 -20 -20 -20 -20 -20 -20 -20 -20 -20 -20 -20 -20 -20 -20 -20 -20
20 -20 -20 -20 -20 -20 -20 -20 -20 -20 -20 -20 -20 -20 -20 -20 -20 -20 -20 -20 -20 -20 -20 -20 -20 -20 -20 -20 -20 -20 -20 -20 -20 -20 -20 -20 -20 -20 -20 -20 -20 -20 -20 -20 -20 -20 -20
21 14 -4 -15 -20 -20 -20 -13 -20 -20 -20 -20 -20 -20 -20 -20 -20 -20 -20 -20 -20 -20 -20 -20 -20 -20 -20 -20 -20 -20 -20 -20 -20 -20 -20 -20 -20 -20 -20 -20 -20 -20 -20 -20 -20 -20 -20
-8 28 -1 8 -20 -20 -20 -20 -20 -20 -20 -20 -20 -20 -20 -20 -20 -20 -20 -20 -20 -20 -20 -20 -20 -20 -20 -20 -20 -20 -20 -20 -20 -20 -20 -20 -20 -20 -20 -20 -20 -20 -20 -20 -20 -20 -20
-7 -11 29 10 0 -20 -20 1 7 -11 -20 -20 -20 -20 -20 -20 -20 -20 -20 -20 -20 -20 -20 -20 -20 -20 -20 -20 -20 -20 -20 -20 -20 -20 -20 -20 -20 -20 -20 -20 -20 -20 -20 -20 -20 -20 -20
-16 -20 27 15 25 -14 -8 7 4 13 -20 -20 -20 -20 -20 -20 -20 -20 -20 -20 -20 -20 -20 -19 -20 -20 -20 -20 -20 -20 -20 -20 -20 -20 -20 -20 -20 -20 -20 -20 -20 -20 -20 -20 -20 -20 -20
Wind_Speed
15 15 15 15 15 15 15 14 13 13 12 12 12 13 14 14 14 13 11 8 6 5 6 7 7 5 1 4 2 2 8 9 5 3 3 3 3 5 4 2 4 2 3 8 7 9 6
15 15 15 16 16 16 16 16 14 13 13 13 13 13 14 15 14 14 11 8 8 7 7 8 8 7 1 3 2 3 5 4 4 2 2 3 4 3 4 4 3 4 7 7 6 6 5
15 16 16 16 16 16 17 17 16 15 13 14 14 14 13 14 14 15 14 10 9 10 10 7 7 2 3 2 2 2 4 3 1 2 3 2 3 4 2 3 2 3 4 4 8 6 5
14 16 16 17 17 17 17 18 18 16 15 13 14 14 14 14 13 15 16 14 12 12 10 7 4 0 1 2 1 4 7 1 3 3 2 3 4 4 1 1 3 2 3 3 6 6 1
14 15 16 17 17 18 18 17 18 18 17 15 13 13 15 15 15 14 16 17 11 11 9 4 1 3 1 5 3 6 2 3 3 3 4 2 2 3 2 3 5 5 4 5 3 5 2
14 14 15 16 17 17 18 18 18 18 18 16 14 13 13 15 16 16 18 11 8 5 1 2 2 2 3 2 3 4 4 6 5 1 3 2 3 2 3 3 12 7 4 3 5 4 3
13 14 15 16 17 17 18 19 19 19 19 17 15 14 13 14 14 14 10 5 7 6 7 2 3 2 4 4 5 6 5 6 6 5 1 1 3 7 13 3 2 6 5 4 2 1 5
13 14 15 16 17 18 18 19 20 20 20 18 16 14 13 13 14 13 1 4 2 2 4 3 3 5 5 2 2 2 8 4 3 0 7 1 8 3 3 5 9 9 7 3 1 2 6
13 14 15 16 16 17 19 19 20 20 20 19 17 15 12 12 12 4 4 4 1 1 0 4 5 3 5 5 3 5 3 4 2 5 5 5 2 7 7 2 7 2 7 4 6 4 6
12 13 14 16 17 17 18 19 19 20 19 20 18 14 11 14 3 1 3 2 1 2 6 8 4 2 2 2 6 3 1 0 5 3 3 4 5 1 5 5 3 3 1 4 9 6 6
12 13 13 15 16 17 18 19 20 20 18 19 17 13 11 5 2 3 3 3 1 4 6 7 8 1 6 2 2 7 4 6 3 4 5 4 7 7 9 3 2 3 4 6 5 6 5
12 13 12 14 16 17 17 18 19 19 18 17 17 13 12 3 2 1 1 3 3 9 4 7 4 6 6 4 3 1 4 5 1 3 5 1 3 5 3 5 6 6 2 8 6 4 4
13 14 13 14 15 16 16 17 18 18 19 17 16 11 6 0 1 1 2 4 7 7 3 7 3 4 3 3 4 3 4 6 4 5 5 3 3 5 4 4 2 1 5 3 5 5 6
14 14 15 15 15 15 16 17 18 19 19 17 14 7 3 1 0 2 3 7 7 3 4 3 3 5 3 4 3 6 3 4 4 3 4 4 5 2 5 0 2 3 4 7 6 4 4
13 13 13 14 15 14 16 17 18 19 19 20 8 2 1 1 1 3 6 6 5 4 3 6 5 4 6 5 3 5 4 4 2 4 3 2 2 2 2 1 1 1 5 3 8 5 5
13 13 12 14 15 15 15 16 18 19 19 16 2 2 3 2 3 4 7 3 2 2 3 2 3 2 5 6 5 3 4 4 6 4 4 1 3 1 3 1 2 3 5 4 5 4 2
14 13 13 14 13 13 14 15 17 18 20 6 3 2 2 1 4 6 4 5 2 1 1 1 3 4 3 2 2 4 4 2 3 6 2 4 2 4 1 3 2 3 3 6 4 4 5
17 15 14 14 14 12 12 14 15 16 20 6 1 2 1 2 5 2 2 3 2 2 1 1 1 1 2 3 3 1 0 3 4 2 2 2 1 1 1 3 1 1 2 4 5 5 1
21 20 16 15 14 12 12 12 13 13 11 2 1 2 1 3 2 0 3 2 2 3 2 1 1 1 1 2 2 1 2 1 4 3 2 4 3 3 7 5 4 3 2 1 1 3 3
19 19 17 15 14 12 11 10 11 10 8 3 2 3 4 3 1 6 5 3 2 1 2 2 2 0 2 1 1 2 3 3 4 3 2 1 3 3 6 2 1 2 3 3 3 3 2
19 19 19 17 16 14 12 11 8 10 9 3 1 4 3 3 2 2 2 7 4 3 2 3 2 3 2 1 1 1 3 3 3 5 2 3 2 2 4 5 2 2 3 2 3 1 3
22 20 20 19 17 16 12 11 9 7 5 2 2 2 2 2 1 4 1 6 9 4 6 3 3 5 4 4 4 4 1 1 1 5 4 4 2 2 3 2 3 3 5 5 3 2 4
25 22 21 20 19 17 14 12 11 6 1 2 1 1 4 2 2 4 5 5 6 7 3 3 4 2 2 4 4 2 1 1 2 1 1 1 4 3 4 1 4 2 3 4 3 3 4
29 26 24 22 21 18 15 13 11 8 4 3 3 3 3 4 4 6 5 5 7 4 4 4 4 5 2 2 2 2 1 1 2 4 0 3 4 2 4 3 2 4 1 3 7 1 2
33 30 27 25 23 21 18 15 13 11 8 2 3 4 4 4 3 2 5 5 4 2 2 4 2 2 3 2 2 3 2 1 2 3 4 2 3 2 2 1 7 3 2 5 4 3 2
32 33 31 28 25 23 21 18 15 13 10 2 2 2 4 3 7 3 5 6 5 4 0 1 1 1 2 3 3 4 5 4 3 1 3 3 5 4 2 2 6 2 2 1 2 3 5
32 35 34 31 28 26 23 20 18 15 13 4 3 4 3 4 4 4 4 6 6 3 3 3 3 2 3 2 2 4 5 2 3 5 4 2 3 4 2 3 8 4 3 1 4 4 5
35 35 38 34 31 29 26 22 20 17 14 5 2 5 5 3 4 4 4 5 3 2 5 5 4 1 2 3 4 4 4 4 1 4 6 7 6 4 2 1 8 4 2 5 4 3 5
42 41 41 36 33 31 28 25 22 20 18 9 2 2 3 3 3 1 1 1 2 3 5 3 4 4 5 4 1 2 2 0 3 3 1 3 6 5 8 6 2 4 1 2 5 5 5
Wind_Direction
29 28 25 22 20 18 13 9 4 358 352 343 339 341 339 339 343 343 341 326 322 342 320 319 325 334 11 41 249 280 334 345 338 48 128 96 114 134 156 120 23 174 212 244 276 297 275
28 25 23 21 21 16 12 9 4 354 346 343 340 341 339 337 340 338 335 317 303 295 298 322 342 342 5 58 220 294 324 329 357 73 97 125 177 196 138 128 98 315 236 255 305 289 251
23 22 21 19 18 15 11 7 1 355 345 338 337 335 336 331 335 330 327 320 303 291 290 303 331 23 45 317 191 219 317 316 251 154 121 256 197 66 161 79 197 250 231 294 279 276 261
19 19 17 14 14 13 10 4 360 355 346 338 334 331 328 326 329 325 320 319 305 290 282 285 316 46 258 314 287 253 183 180 57 53 113 96 70 103 62 336 133 146 119 120 267 218 199
16 15 13 11 10 10 8 4 359 354 348 341 332 330 326 324 325 324 319 313 288 279 283 235 237 180 276 142 294 70 121 132 83 63 10 147 31 164 76 108 93 175 176 183 243 182 201
9 10 8 7 5 5 3 1 357 355 348 342 334 332 326 320 322 325 322 302 291 321 53 105 293 326 324 271 158 144 152 103 82 289 258 189 207 120 135 158 177 159 193 171 194 199 65
6 4 4 3 2 0 359 357 355 353 353 345 337 331 325 320 320 328 346 8 18 348 36 296 274 243 285 292 125 197 154 146 197 208 51 268 148 150 155 197 131 166 151 134 263 146 93
0 359 0 359 359 357 356 354 353 353 354 350 339 330 324 322 321 324 104 76 110 212 319 228 267 283 272 218 300 195 139 174 230 352 138 71 68 309 196 226 252 230 151 144 347 144 91
351 351 352 354 354 354 352 350 349 351 353 347 337 334 328 322 318 25 72 128 286 42 149 296 223 229 270 347 312 285 176 169 155 63 64 108 192 231 214 138 162 55 145 180 148 114 42
343 346 345 345 347 349 349 346 345 346 347 348 338 331 329 324 50 321 52 299 352 125 65 303 338 283 144 277 318 273 96 345 22 78 44 92 299 87 90 76 341 78 89 146 140 96 150
340 341 340 341 342 342 344 342 343 342 342 345 338 328 330 17 192 66 285 312 358 56 50 285 302 195 305 164 312 333 342 15 10 23 55 295 4 20 52 337 292 97 353 139 94 86 94
334 340 339 337 338 337 338 336 336 336 340 340 336 329 332 51 57 203 324 14 53 45 282 327 311 355 13 4 349 342 358 26 62 89 44 314 357 43 311 298 57 7 57 45 46 83 47
326 331 334 334 336 334 333 333 331 336 337 338 336 329 338 38 228 181 84 45 32 98 325 305 325 349 343 302 9 11 50 18 46 47 15 39 40 349 351 74 11 127 55 46 15 20 203
314 318 324 327 331 334 334 333 330 333 336 335 333 327 342 328 170 92 55 50 66 244 264 323 333 317 359 6 6 15 32 25 10 69 60 92 336 95 324 202 211 150 158 149 167 161 232
297 305 312 317 322 330 336 335 330 332 336 335 330 353 9 256 174 69 74 55 208 207 321 335 318 39 340 356 43 67 32 340 309 10 106 116 334 321 167 241 188 239 58 196 101 33 62
289 294 301 310 314 320 327 333 331 332 336 340 44 31 286 163 95 56 75 180 215 268 335 348 340 55 18 336 27 45 16 348 329 13 6 273 52 27 303 6 329 109 173 56 18 129 215
285 289 290 301 304 310 316 328 331 333 337 344 49 50 269 98 74 47 123 211 185 223 104 359 324 325 18 23 7 14 334 348 338 315 5 3 110 280 60 20 214 8 48 57 101 145 173
279 278 285 290 293 298 309 319 330 339 342 52 46 13 252 89 44 74 141 173 196 168 165 263 212 278 314 354 20 85 191 235 340 293 350 169 150 93 39 321 302 1 95 133 134 215 167
275 276 276 279 279 287 298 311 323 339 23 354 0 251 11 92 147 5 276 271 172 161 176 185 277 175 290 311 4 25 350 252 357 33 47 339 4 32 349 1 27 17 356 14 6 44 194
258 264 267 266 267 273 284 298 313 328 351 101 47 351 327 59 94 142 161 210 238 233 191 188 219 110 319 288 284 336 345 356 354 360 311 30 63 131 185 220 176 220 208 158 124 89 161
245 254 255 260 261 260 268 281 299 318 344 118 81 244 184 270 294 187 172 163 157 234 262 196 207 199 171 283 351 14 350 330 334 338 40 99 114 114 259 255 251 260 268 204 189 214 149
235 240 248 250 249 252 256 269 280 311 12 98 192 154 4 221 274 164 193 231 177 183 155 234 220 195 162 185 190 200 190 318 279 333 24 3 317 22 288 331 359 293 280 251 238 276 300
233 231 238 243 245 240 243 249 261 279 71 174 242 337 119 252 155 123 223 198 222 148 206 171 181 145 229 209 179 197 223 179 228 238 262 132 132 98 262 258 347 335 227 198 194 178 166
232 226 228 231 234 233 230 237 243 246 177 159 185 115 113 249 176 197 193 184 174 218 179 181 158 157 171 45 39 87 233 179 94 31 179 160 145 150 252 314 354 228 15 155 124 60 165
232 225 221 224 226 226 222 224 226 226 204 165 177 140 160 250 195 203 182 156 117 95 175 181 213 157 156 125 74 36 321 207 87 36 353 27 126 80 105 304 295 132 188 151 183 224 225
278 227 219 218 216 217 216 216 213 213 201 156 199 146 133 140 239 139 159 171 166 173 20 190 34 339 55 89 98 182 220 231 221 204 24 67 72 110 122 139 222 209 197 127 84 278 179
277 257 218 214 213 209 210 213 203 205 197 169 191 172 112 166 251 168 179 176 152 130 134 143 171 133 47 98 145 181 243 199 217 190 172 67 36 157 163 222 287 236 165 167 97 233 169
272 275 224 210 208 206 203 203 202 195 189 164 214 176 144 175 261 210 186 140 123 167 158 170 89 287 76 166 169 219 196 221 193 164 177 168 145 199 119 188 277 159 80 173 197 146 155
264 259 235 205 206 202 200 197 195 191 181 169 185 186 139 152 214 108 294 110 133 179 143 186 148 151 175 107 218 109 199 128 158 239 125 211 189 185 184 214 235 199 148 150 150 147 171